IK5NLA Vaiano IT current weather conditions

sailwx.info

Wind from 244 at 4 knots

Air temperature 8.9° C
Dewpoint 8.0° C

Last reported at 2017-Mar-25 20:51 UTC.
Time now 2017-Mar-25 21:35 UTC

Location: N 43°58' E 011°06'.
View on Google Maps.

See reports from other nearby stations

  
Tides and Currents Weather Stations Pressure Air Temp Water Temp Dewpoint Dewpoint Depression Visibility Wind Speed Wind Dir Waves Ship Positions
date/time (UTC)wind fromknots sea level pressurealtimeterstation pressurevisibilityair tempwater tempwave heightnotes
2017-Mar-25 20:51 244 4 8.9
2017-Mar-25 20:36 206 1 8.9
2017-Mar-25 20:31 257 3 8.9
2017-Mar-25 20:21 242 6 8.9
2017-Mar-25 20:11 281 8 9.4
2017-Mar-25 20:06 277 9 9.4
2017-Mar-25 20:01 232 7 10.0
2017-Mar-25 19:56 235 6 10.0
2017-Mar-25 19:46 251 5 10.6
2017-Mar-25 19:31 266 1 10.6
2017-Mar-25 19:26 256 10.6
2017-Mar-25 19:21 090 10.6
2017-Mar-25 19:11 089 0 10.6
2017-Mar-25 18:51 270 2 11.7
2017-Mar-25 18:41 126 5 12.8
2017-Mar-25 18:36 207 9 12.8
2017-Mar-25 18:26 271 16 12.8
2017-Mar-25 18:21 288 13 12.2
2017-Mar-25 17:56 250 14 13.3
2017-Mar-25 17:46 276 12 13.9
2017-Mar-25 17:41 269 12 14.4
2017-Mar-25 17:31 360 9 15.6
2017-Mar-25 17:26 360 9 15.6
2017-Mar-25 17:21 271 9 16.1
2017-Mar-25 17:16 265 7 16.1
2017-Mar-25 17:11 360 5 16.1
2017-Mar-25 16:51 286 6 16.1
2017-Mar-25 16:46 261 8 16.1
2017-Mar-25 16:40 275 6 16.1
2017-Mar-25 16:35 250 6 16.1
2017-Mar-25 16:30 279 6 16.1
2017-Mar-25 16:25 284 6 16.1
2017-Mar-25 16:15 272 9 16.7
2017-Mar-25 16:10 275 10 16.7
2017-Mar-25 16:05 267 11 16.7
2017-Mar-25 16:00 279 11 16.7
2017-Mar-25 15:50 261 12 16.1
2017-Mar-25 15:45 269 13 16.1
2017-Mar-25 15:35 285 12 17.2
2017-Mar-25 15:30 262 9 17.8
2017-Mar-25 15:25 360 6 19.4
2017-Mar-25 15:15 222 3 19.4
2017-Mar-25 15:10 280 4 19.4
2017-Mar-25 15:00 234 4 19.4
2017-Mar-25 14:55 195 4 19.4
2017-Mar-25 14:50 360 4 20.0
2017-Mar-25 14:25 252 4 19.4
2017-Mar-25 14:20 360 5 19.4
2017-Mar-25 14:15 360 5 19.4
2017-Mar-25 14:10 360 4 20.0
2017-Mar-25 13:50 360 6 19.4
2017-Mar-25 13:30 272 4 19.4
2017-Mar-25 13:25 206 5 19.4
2017-Mar-25 13:15 238 4 20.0
2017-Mar-25 12:45 234 4 20.0
2017-Mar-25 12:40 219 3 20.0
2017-Mar-25 12:30 360 4 19.4
2017-Mar-25 12:25 360 4 19.4
2017-Mar-25 12:15 360 5 19.4
2017-Mar-25 12:10 187 4 19.4
2017-Mar-25 12:00 248 5 19.4
2017-Mar-25 11:50 170 2 19.4
2017-Mar-25 11:45 360 2 19.4
2017-Mar-25 11:40 199 3 19.4
2017-Mar-25 11:35 215 4 19.4
2017-Mar-25 11:30 360 4 19.4
2017-Mar-25 11:25 195 3 19.4
2017-Mar-25 11:20 202 3 19.4
2017-Mar-25 11:15 184 4 18.9
2017-Mar-25 11:10 225 3 18.9
2017-Mar-25 11:00 222 2 19.4
2017-Mar-25 10:55 202 2 19.4
2017-Mar-25 10:50 209 1 19.4
2017-Mar-25 10:45 184 2 18.9
2017-Mar-25 10:40 188 1 18.9
2017-Mar-25 10:35 215 2 18.9
2017-Mar-25 10:25 198 3 18.9
2017-Mar-25 10:20 169 3 18.3
2017-Mar-25 10:15 136 2 18.9
2017-Mar-25 10:10 072 2 18.3
2017-Mar-25 10:00 097 2 18.9
2017-Mar-25 09:50 117 1 18.9
2017-Mar-25 09:45 134 1 18.9
2017-Mar-25 09:35 296 2 17.8
2017-Mar-25 09:26 186 2 18.3
2017-Mar-25 09:20 109 1 18.3
2017-Mar-25 09:11 152 1 18.3
2017-Mar-25 09:00 109 1 18.3
2017-Mar-25 08:50 084 2 17.8
2017-Mar-25 08:40 086 2 17.8
2017-Mar-25 08:30 081 2 17.2
2017-Mar-25 08:20 111 3 17.2
2017-Mar-25 08:15 082 3 16.7
2017-Mar-25 08:10 082 3 16.7
2017-Mar-25 08:05 090 2 16.7
2017-Mar-25 07:55 091 3 16.7
2017-Mar-25 07:40 090 3 16.1
2017-Mar-25 07:35 080 2 16.1
2017-Mar-25 07:30 098 2 16.1
2017-Mar-25 07:20 014 1 16.1
2017-Mar-25 07:15 101 2 16.1
2017-Mar-25 07:05 063 2 15.6
2017-Mar-25 07:00 076 2 15.6
2017-Mar-25 06:50 034 3 15.6
2017-Mar-25 06:40 022 3 15.0
2017-Mar-25 06:10 030 2 14.4
2017-Mar-25 06:00 049 3 14.4
2017-Mar-25 05:55 049 4 14.4
2017-Mar-25 05:50 349 4 13.9
2017-Mar-25 05:40 011 3 13.9
2017-Mar-25 05:35 024 3 13.9
2017-Mar-25 05:30 360 3 13.9
2017-Mar-25 05:25 331 4 13.9
2017-Mar-25 05:15 346 3 13.9
2017-Mar-25 05:10 024 2 13.9
2017-Mar-25 05:05 028 3 13.9
2017-Mar-25 04:55 360 3 13.9
2017-Mar-25 04:50 005 4 13.9
2017-Mar-25 04:46 021 4 13.9
2017-Mar-25 04:40 331 4 13.9
2017-Mar-25 04:35 336 4 13.9
2017-Mar-25 04:30 360 5 13.9
2017-Mar-25 04:20 014 4 13.9
2017-Mar-25 04:10 331 5 13.9
2017-Mar-25 04:06 326 4 13.9
2017-Mar-25 04:00 018 5 13.9
2017-Mar-25 03:55 360 4 13.9
2017-Mar-25 03:45 044 4 13.9
2017-Mar-25 03:40 360 4 13.9
2017-Mar-25 03:35 005 3 13.9
2017-Mar-25 03:30 056 3 13.9
2017-Mar-25 03:20 360 3 13.9
2017-Mar-25 03:15 334 4 13.9
2017-Mar-25 03:05 339 5 13.9
2017-Mar-25 02:46 028 4 13.9
2017-Mar-25 02:35 360 5 13.9
2017-Mar-25 02:30 331 5 13.3
2017-Mar-25 02:20 355 3 13.3
2017-Mar-25 02:10 057 4 13.3
2017-Mar-25 02:05 036 3 13.3
2017-Mar-25 01:35 043 4 13.3
2017-Mar-25 01:30 063 4 13.3
2017-Mar-25 01:15 360 4 13.3
2017-Mar-25 01:10 026 3 13.3
2017-Mar-25 01:05 039 3 13.9
2017-Mar-25 00:45 059 4 13.9
2017-Mar-25 00:25 022 4 14.4
2017-Mar-25 00:20 019 3 14.4
2017-Mar-25 00:05 018 5 14.4
2017-Mar-25 00:00 360 5 15.0
2017-Mar-24 23:50 337 3 15.0
2017-Mar-24 23:41 028 4 15.0
2017-Mar-24 23:35 022 4 15.0
2017-Mar-24 23:30 360 5 15.0
2017-Mar-24 23:21 330 5 15.0
2017-Mar-24 23:06 329 4 15.0
2017-Mar-24 23:01 309 4 15.0
2017-Mar-24 22:55 348 4 15.0
2017-Mar-24 22:51 350 5 15.0
2017-Mar-24 22:45 302 5 15.0
2017-Mar-24 22:40 300 4 15.0
2017-Mar-24 22:36 360 4 15.0
2017-Mar-24 22:30 323 5 15.0
2017-Mar-24 22:25 307 4 15.0
2017-Mar-24 22:20 320 5 15.0
2017-Mar-24 22:15 025 5 15.0
2017-Mar-24 22:10 307 4 15.0
2017-Mar-24 21:55 328 6 15.0
2017-Mar-24 21:45 355 6 15.0
2017-Mar-24 21:40 326 6 15.0
2017-Mar-24 21:30 313 6 15.0
2017-Mar-24 21:25 305 6 15.0
2017-Mar-24 21:21 317 5 14.4
2017-Mar-24 21:15 311 5 14.4
2017-Mar-24 21:06 331 3 14.4
2017-Mar-24 20:55 035 5 14.4
2017-Mar-24 20:51 355 4 14.4
2017-Mar-24 20:45 334 4 14.4
2017-Mar-24 20:40 026 5 14.4
2017-Mar-24 20:36 040 4 14.4
2017-Mar-24 20:25 011 1 14.4
2017-Mar-24 20:21 042 2 14.4
2017-Mar-24 20:15 078 2 14.4
2017-Mar-24 20:06 018 2 14.4
2017-Mar-24 19:55 304 2 14.4
2017-Mar-24 19:50 044 3 14.4
2017-Mar-24 19:41 026 3 15.0
2017-Mar-24 19:35 050 3 15.0
2017-Mar-24 19:30 028 4 15.0
2017-Mar-24 19:26 015 4 15.0
2017-Mar-24 19:20 069 3 15.0
2017-Mar-24 19:11 064 2 15.0
2017-Mar-24 19:05 360 3 15.0
2017-Mar-24 19:00 349 4 15.0
2017-Mar-24 18:51 355 2 15.0
2017-Mar-24 18:45 040 1 15.0
2017-Mar-24 18:40 103 2 15.0
2017-Mar-24 18:35 049 3 15.0
2017-Mar-24 18:25 041 2 15.6
2017-Mar-24 18:06 053 2 15.6
2017-Mar-24 18:00 051 2 15.6
2017-Mar-24 17:56 092 2 15.6
2017-Mar-24 17:51 024 2 16.1
2017-Mar-24 17:46 037 3 16.1
2017-Mar-24 17:40 355 3 16.1
2017-Mar-24 17:30 030 3 16.1
2017-Mar-24 17:21 360 3 16.7
2017-Mar-24 17:16 025 3 16.7
2017-Mar-24 17:11 060 3 16.7
2017-Mar-24 17:00 005 4 17.2
2017-Mar-24 16:56 018 3 17.2
2017-Mar-24 16:51 041 2 17.2
2017-Mar-24 16:46 055 2 17.2
2017-Mar-24 16:36 057 3 17.8
2017-Mar-24 16:31 068 3 17.8
2017-Mar-24 16:20 066 4 17.8
2017-Mar-24 16:15 068 4 17.8
2017-Mar-24 16:05 016 5 18.3
2017-Mar-24 15:56 074 5 18.3
2017-Mar-24 15:50 068 5 18.3
2017-Mar-24 15:46 049 5 18.3
2017-Mar-24 15:41 088 4 18.9
2017-Mar-24 15:35 080 5 18.9
2017-Mar-24 15:31 072 4 19.4
2017-Mar-24 15:20 061 2 19.4
2017-Mar-24 15:16 081 1 20.0
2017-Mar-24 15:00 106 1 20.0
2017-Mar-24 14:56 071 1 20.0
2017-Mar-24 14:51 067 2 20.0
2017-Mar-24 14:36 127 2 20.0
2017-Mar-24 14:31 053 3 19.4
2017-Mar-24 14:26 082 3 19.4
2017-Mar-24 14:21 071 1 20.0
2017-Mar-24 14:16 073 1 19.4
2017-Mar-24 14:01 078 2 18.9
2017-Mar-24 13:56 089 2 18.9
2017-Mar-24 13:51 098 2 18.9
2017-Mar-24 13:46 107 3 18.9
2017-Mar-24 13:26 355 3 18.9
2017-Mar-24 13:21 048 2 18.9
2017-Mar-24 13:11 161 2 18.3
2017-Mar-24 13:06 070 2 18.9
2017-Mar-24 12:56 095 2 18.3
2017-Mar-24 12:50 125 2 18.3
2017-Mar-24 12:46 060 2 18.3
2017-Mar-24 12:31 083 0 18.3
2017-Mar-24 12:26 067 1 18.3
2017-Mar-24 12:21 078 1 17.8
2017-Mar-24 12:16 103 2 17.8
2017-Mar-24 12:11 049 1 17.8
2017-Mar-24 12:01 101 2 17.8
2017-Mar-24 11:56 091 2 17.8
2017-Mar-24 11:51 089 2 17.8
2017-Mar-24 11:46 041 1 17.8
2017-Mar-24 11:41 103 2 17.8
2017-Mar-24 11:36 119 1 17.8
2017-Mar-24 11:31 088 1 17.8
2017-Mar-24 11:26 067 1 17.8
2017-Mar-24 11:16 138 0 17.8
2017-Mar-24 11:11 103 1 17.8
2017-Mar-24 11:06 084 0 18.3
2017-Mar-24 11:01 061 0 18.3
2017-Mar-24 10:56 069 0 18.3
2017-Mar-24 10:46 119 1 17.2
2017-Mar-24 10:41 159 0 17.8
2017-Mar-24 10:31 100 0 17.2
2017-Mar-24 10:26 080 1 17.2
2017-Mar-24 10:21 106 1 17.2
2017-Mar-24 10:16 082 1 17.2
2017-Mar-24 10:06 163 0 17.2
2017-Mar-24 10:01 138 0 17.2
2017-Mar-24 09:56 150 0 17.2
2017-Mar-24 09:46 176 0 16.7
2017-Mar-24 09:36 136 1 16.7
2017-Mar-24 09:26 134 1 16.1
2017-Mar-24 09:21 131 0 16.7
2017-Mar-24 09:16 125 1 16.7
2017-Mar-24 09:11 125 1 16.1
2017-Mar-24 09:01 071 0 16.1
2017-Mar-24 08:56 360 1 15.6
2017-Mar-24 08:51 047 1 15.6
2017-Mar-24 08:41 067 2 15.6
2017-Mar-24 08:31 088 1 15.6
2017-Mar-24 08:26 080 2 15.6
2017-Mar-24 08:21 050 1 15.6
2017-Mar-24 08:16 072 1 15.6
2017-Mar-24 08:11 062 2 15.0
2017-Mar-24 08:06 032 2 15.0
2017-Mar-24 07:56 032 3 14.4
2017-Mar-24 07:51 037 3 13.9
2017-Mar-24 07:46 040 2 14.4
2017-Mar-24 07:36 068 1 14.4
2017-Mar-24 07:31 059 1 14.4
2017-Mar-24 07:26 024 1 13.9
2017-Mar-24 07:21 057 1 13.9
2017-Mar-24 07:11 030 1 13.3
2017-Mar-24 07:06 045 1 13.3
2017-Mar-24 06:56 355 3 12.8
2017-Mar-24 06:46 039 2 12.8
2017-Mar-24 06:41 335 3 12.2
2017-Mar-24 06:36 300 3 12.2
2017-Mar-24 06:26 350 3 12.2
2017-Mar-24 06:16 350 1 11.7
2017-Mar-24 06:11 013 1 11.7
2017-Mar-24 06:06 009 2 11.7
2017-Mar-24 06:01 005 2 11.7
2017-Mar-24 05:51 040 1 11.1
2017-Mar-24 05:46 005 2 11.1
2017-Mar-24 05:26 012 2 11.1
2017-Mar-24 05:11 355 2 11.1
2017-Mar-24 04:46 021 11.1
2017-Mar-24 04:41 017 11.1
2017-Mar-24 04:36 015 11.1
2017-Mar-24 04:31 015 11.1
2017-Mar-24 04:21 015 11.1
2017-Mar-24 04:16 017 11.1
2017-Mar-24 04:06 326 11.1
2017-Mar-24 03:56 326 11.1
2017-Mar-24 03:51 326 11.1
2017-Mar-24 03:46 326 11.1
2017-Mar-24 03:36 326 11.1
2017-Mar-24 03:26 325 0 11.1
2017-Mar-24 03:16 337 11.1
2017-Mar-24 03:06 337 11.1
2017-Mar-24 03:01 337 11.1
2017-Mar-24 02:51 337 0 10.6
2017-Mar-24 02:46 337 0 10.6
2017-Mar-24 02:41 342 10.6
2017-Mar-24 02:36 021 10.6
2017-Mar-24 02:16 020 10.6
2017-Mar-24 02:06 020 10.6
2017-Mar-24 01:56 018 10.6
2017-Mar-24 01:51 336 10.6
2017-Mar-24 01:46 331 10.6
2017-Mar-24 01:36 330 10.6
2017-Mar-24 01:31 331 10.6
2017-Mar-24 01:21 331 10.6
2017-Mar-24 01:11 331 11.1
2017-Mar-24 01:06 322 11.1
2017-Mar-24 01:01 321 11.1
2017-Mar-24 00:56 321 11.1
2017-Mar-24 00:46 321 11.1
2017-Mar-24 00:36 321 11.1
2017-Mar-24 00:21 321 11.1
2017-Mar-24 00:16 321 11.1
2017-Mar-24 00:11 321 11.1
2017-Mar-24 00:06 321 11.1
2017-Mar-24 00:01 321 11.1
2017-Mar-23 23:56 321 11.1
2017-Mar-23 23:41 320 11.1
2017-Mar-23 23:36 325 11.1
2017-Mar-23 23:31 325 11.1
2017-Mar-23 23:16 326 11.1
2017-Mar-23 23:11 326 11.1
2017-Mar-23 23:06 326 0 11.1
2017-Mar-23 23:01 325 0 11.1
2017-Mar-23 22:56 326 1 11.1
2017-Mar-23 22:51 323 0 11.1
2017-Mar-23 22:46 328 11.1
2017-Mar-23 22:41 327 11.1
2017-Mar-23 22:26 346 1 11.1
2017-Mar-23 22:16 335 0 11.1
2017-Mar-23 22:11 319 0 11.1
2017-Mar-23 22:06 312 0 11.1
2017-Mar-23 22:01 290 11.1
2017-Mar-23 21:31 259 2 11.7
2017-Mar-23 21:21 283 2 11.7
2017-Mar-23 21:16 267 2 11.7
2017-Mar-23 21:11 267 2 11.7